Weather observations for the past three days for
Wiley Post-Will Rogers Memorial Airport
| Date | Time (akdt) | Wind (mph) | Vis. (mi.) | Weather | Sky Cond. | Temperature (ºF) | Relative Humidity | Wind Chill (°F) | Heat Index (°F) | Pressure | Precipitation (in) | ||||||
|---|---|---|---|---|---|---|---|---|---|---|---|---|---|---|---|---|---|
| Air | Dwpt | 6 hour | altimeter (in) | sea level (mb) | 1 hr | 3 hr | 6 hr | ||||||||||
| Max. | Min. | ||||||||||||||||
| 30 | 21:53 | SW 15 | 8.00 | Overcast | OVC003 | 44.1 | 43 | 50 | 44.1 | 96% | 38 | 29.59 | 1002.0 | 0.01 | |||
| 30 | 20:53 | S 8 | 10.00 | Overcast | BKN003 OVC100 | 46.9 | 46 | 97% | 44 | 29.58 | 1001.6 | ||||||
| 30 | 19:53 | SE 9 | 10.00 | Overcast | FEW022 BKN045 OVC090 | 48 | 46 | 93% | 44 | 29.57 | 1001.5 | 0.01 | |||||
| 30 | 18:53 | SE 8 | 10.00 | Light Rain | FEW022 BKN027 OVC075 | 50 | 46 | 86% | 47 | 29.57 | 1001.3 | ||||||
| 30 | 17:53 | SE 9 | 10.00 | Overcast | OVC039 | 48.9 | 44.1 | 83% | 45 | 29.56 | 1001.1 | ||||||
| 30 | 16:53 | SE 10 | 10.00 | Overcast | SCT035 OVC085 | 50 | 45 | 83% | 46 | 29.56 | 1000.9 | ||||||
| 30 | 15:53 | SE 12 | 10.00 | Overcast | SCT055 BKN070 OVC090 | 48.9 | 44.1 | 48.9 | 41 | 83% | 45 | 29.55 | 1000.8 | 0.04 | |||
| 30 | 14:53 | SE 10 | 10.00 | Mostly Cloudy | FEW085 BKN100 | 46.9 | 44.1 | 90% | 43 | 29.55 | 1000.6 | ||||||
| 30 | 13:53 | SE 10 | 10.00 | Overcast | BKN065 BKN085 OVC100 | 46 | 43 | 89% | 42 | 29.55 | 1000.7 | 0.02 | |||||
| 30 | 12:53 | SE 10 | 10.00 | Light Rain | OVC047 | 43 | 41 | 93% | 38 | 29.56 | 1000.9 | 0.02 | 0.02 | ||||
| 30 | 11:53 | SE 9 | 10.00 | Light Rain | FEW047 OVC060 | 43 | 41 | 93% | 38 | 29.56 | 1001.0 | ||||||
| 30 | 10:53 | SE 12 | 10.00 | Light Rain | OVC070 | 42.1 | 39 | 89% | 36 | 29.57 | 1001.3 | ||||||
| 30 | 09:53 | SE 12 | 10.00 | Overcast | OVC055 | 41 | 39 | 41 | 39 | 93% | 35 | 29.58 | 1001.6 | ||||
| 30 | 08:53 | E 12 | 10.00 | Overcast | OVC055 | 39.9 | 37.9 | 93% | 34 | 29.58 | 1001.7 | ||||||
| 30 | 07:53 | SE 12 | 10.00 | Overcast | BKN055 OVC070 | 39 | 37 | 93% | 32 | 29.59 | 1002.2 | ||||||
| 30 | 06:53 | E 13 | 10.00 | Overcast | OVC065 | 39 | 37 | 93% | 32 | 29.61 | 1002.8 | ||||||
| 30 | 05:53 | E 12 | 10.00 | Overcast | OVC070 | 39 | 37 | 93% | 32 | 29.64 | 1003.6 | ||||||
| 30 | 04:53 | SE 10 | 10.00 | Overcast | OVC075 | 39 | 37 | 93% | 33 | 29.65 | 1004.3 | ||||||
| 30 | 03:53 | SE 12 | 10.00 | Overcast | OVC065 | 39.9 | 37.9 | 42.1 | 39 | 93% | 34 | 29.67 | 1004.9 | ||||
| 30 | 02:53 | SE 13 | 10.00 | Overcast | OVC065 | 39 | 37.9 | 96% | 32 | 29.69 | 1005.5 | ||||||
| 30 | 01:53 | SE 14 | 10.00 | Overcast | OVC065 | 39 | 37.9 | 96% | 32 | 29.71 | 1006.1 | ||||||
| 30 | 00:53 | SE 13 | 10.00 | Overcast | OVC060 | 39 | 37.9 | 96% | 32 | 29.73 | 1006.8 | ||||||
| 29 | 23:53 | SE 13 | 10.00 | Mostly Cloudy | BKN070 | 39 | 37.9 | 96% | 32 | 29.75 | 1007.4 | ||||||
| 29 | 22:53 | SE 12 | 10.00 | Overcast | OVC055 | 41 | 39 | 93% | 35 | 29.76 | 1007.8 | ||||||
| 29 | 21:53 | SE 10 | 10.00 | Overcast | OVC055 | 42.1 | 39 | 44.1 | 39 | 89% | 37 | 29.76 | 1007.9 | ||||
| 29 | 20:53 | SE 10 | 10.00 | Fair | CLR | 42.1 | 39 | 89% | 37 | 29.77 | 1008.3 | ||||||
| 29 | 19:53 | SE 10 | 10.00 | Fair | CLR | 44.1 | 39 | 83% | 39 | 29.78 | 1008.5 | ||||||
| 29 | 18:53 | SE 10 | 10.00 | Fair | CLR | 44.1 | 37.9 | 79% | 39 | 29.79 | 1008.8 | ||||||
| 29 | 17:53 | SE 10 | 10.00 | Fair | CLR | 44.1 | 37 | 76% | 39 | 29.8 | 1009.1 | ||||||
| 29 | 16:53 | SE 9 | 10.00 | Partly Cloudy | SCT006 | 41 | 37 | 86% | 36 | 29.8 | 1009.1 | ||||||
| 29 | 15:53 | SE 9 | 10.00 | Overcast | OVC005 | 39 | 37 | 39.9 | 32 | 93% | 33 | 29.8 | 1009.2 | ||||
| 29 | 14:53 | SE 7 | 10.00 | Overcast | OVC004 | 37.9 | 37 | 97% | 33 | 29.8 | 1009.1 | ||||||
| 29 | 13:53 | S 6 | 9.00 | Overcast | OVC004 | 37 | 36 | 96% | 33 | 29.8 | 1009.2 | ||||||
| 29 | 12:53 | S 5 | 10.00 | Overcast | OVC004 | 36 | 35.1 | 97% | 33 | 29.8 | 1009.1 | ||||||
| 29 | 11:53 | S 8 | 4.00 | Fog/Mist | OVC004 | 35.1 | 34 | 96% | 29 | 29.79 | 1008.7 | ||||||
| 29 | 10:53 | Calm | 1.25 | Fog/Mist | OVC004 | 34 | 34 | 100% | 29.78 | 1008.6 | |||||||
| 29 | 09:53 | Calm | 0.50 | Fog | VV003 | 32 | 32 | 32 | 30.9 | 100% | 29.78 | 1008.4 | |||||
| 29 | 08:53 | SW 5 | 3.00 | Fog/Mist | OVC003 | 30.9 | 30.9 | 100% | 27 | 29.77 | 1008.1 | ||||||
| 29 | 07:53 | Calm | 2.50 | Fog/Mist | OVC004 | 32 | 30.9 | 96% | 29.76 | 1007.8 | |||||||
| 29 | 06:53 | N 3 | 1.00 | Fog/Mist | VV004 | 32 | 30.9 | 96% | 29.75 | 1007.6 | |||||||
| 29 | 05:53 | Calm | 0.75 | Fog/Mist | VV003 | 32 | 32 | 100% | 29.73 | 1006.9 | |||||||
| 29 | 04:53 | NE 3 | 0.75 | Fog/Mist | VV003 | 32 | 30.9 | 96% | 29.72 | 1006.4 | |||||||
| 29 | 03:53 | N 3 | 3.00 | Fog/Mist | OVC003 | 32 | 30.9 | 33.1 | 32 | 96% | 29.7 | 1005.8 | |||||
| 29 | 02:53 | NE 5 | 3.00 | Fog/Mist | OVC003 | 32 | 30.9 | 96% | 28 | 29.68 | 1005.1 | ||||||
| 29 | 01:53 | N 8 | 6.00 | Fog/Mist | OVC003 | 33.1 | 32 | 96% | 27 | 29.67 | 1004.6 | ||||||
| 29 | 00:53 | NE 7 | 6.00 | Fog/Mist | OVC003 | 33.1 | 32 | 96% | 28 | 29.64 | 1003.9 | ||||||
| 28 | 23:53 | NE 8 | 7.00 | Overcast | OVC003 | 33.1 | 32 | 96% | 27 | 29.62 | 1003.1 | ||||||
| 28 | 22:53 | NE 10 | 8.00 | Overcast | OVC003 | 33.1 | 30.9 | 92% | 26 | 29.59 | 1002.2 | ||||||
| 28 | 21:53 | N 10 | 1.00 | Fog/Mist | OVC003 | 33.1 | 32 | 37 | 33.1 | 96% | 26 | 29.58 | 1001.7 | ||||
| 28 | 20:53 | N 10 | 1.75 | Fog/Mist | OVC002 | 34 | 33.1 | 97% | 27 | 29.56 | 1001.0 | ||||||
| 28 | 19:53 | NE 12 | 1.25 | Fog/Mist | OVC002 | 34 | 33.1 | 97% | 26 | 29.53 | 1000.2 | ||||||
| 28 | 18:53 | NE 13 | 4.00 | Fog/Mist | OVC003 | 35.1 | 34 | 96% | 27 | 29.51 | 999.4 | ||||||
| 28 | 17:53 | NE 13 | 2.50 | Fog/Mist | OVC003 | 36 | 35.1 | 97% | 28 | 29.5 | 998.9 | ||||||
| 28 | 16:53 | NE 15 | 10.00 | Overcast | OVC004 | 37 | 35.1 | 93% | 29 | 29.48 | 998.2 | ||||||
| 28 | 15:53 | E 17 | 10.00 | Overcast | OVC004 | 37 | 34 | 37.9 | 36 | 89% | 28 | 29.46 | 997.6 | ||||
| 28 | 14:53 | E 15 | 10.00 | Overcast | OVC004 | 36 | 34 | 93% | 27 | 29.45 | 997.2 | ||||||
| 28 | 13:53 | E 16 | 10.00 | Overcast | OVC004 | 37 | 35.1 | 93% | 28 | 29.44 | 997.0 | ||||||
| 28 | 12:53 | E 17 | 8.00 | Overcast | OVC005 | 37 | 36 | 96% | 28 | 29.43 | 996.7 | ||||||
| 28 | 11:53 | E 18 | 10.00 | Overcast | OVC006 | 37.9 | 36 | 93% | 29 | 29.43 | 996.5 | ||||||
| 28 | 10:53 | E 18 G 28 | 10.00 | Overcast | OVC006 | 37 | 35.1 | 93% | 28 | 29.43 | 996.8 | ||||||
| 28 | 09:53 | E 17 | 10.00 | Overcast | OVC006 | 37 | 35.1 | 37.9 | 37 | 93% | 28 | 29.45 | 997.3 | ||||
| 28 | 08:53 | E 21 G 30 | 10.00 | Overcast and Breezy | OVC005 | 37 | 35.1 | 93% | 27 | 29.47 | 997.9 | ||||||
| 28 | 07:53 | E 20 | 10.00 | Mostly Cloudy | BKN007 | 37.9 | 36 | 93% | 29 | 29.48 | 998.3 | ||||||
| 28 | 06:53 | E 18 G 28 | 10.00 | Fair | CLR | 37 | 35.1 | 93% | 28 | 29.49 | 998.7 | ||||||
| 28 | 05:53 | E 16 | 10.00 | Fair | CLR | 37.9 | 35.1 | 89% | 30 | 29.51 | 999.5 | ||||||
| 28 | 04:53 | E 15 | 10.00 | Fair | CLR | 37 | 35.1 | 93% | 29 | 29.54 | 1000.4 | ||||||
| 28 | 03:53 | E 15 | 10.00 | Fair | CLR | 37 | 35.1 | 41 | 37 | 93% | 29 | 29.57 | 1001.2 | ||||
| 28 | 02:53 | E 15 | 10.00 | Fair | CLR | 37 | 35.1 | 93% | 29 | 29.59 | 1002.2 | ||||||
| 28 | 01:53 | E 16 | 10.00 | Mostly Cloudy | BKN120 | 37.9 | 35.1 | 89% | 30 | 29.63 | 1003.3 | ||||||
| 28 | 00:53 | E 16 | 10.00 | Fair | CLR | 39 | 36 | 89% | 31 | 29.65 | 1004.1 | ||||||
| 27 | 23:53 | E 14 | 10.00 | Fair | CLR | 39 | 36 | 89% | 32 | 29.68 | 1005.0 | ||||||
| 27 | 22:53 | E 14 | 10.00 | Partly Cloudy | SCT043 | 39 | 36 | 89% | 32 | 29.7 | 1005.9 | ||||||
| Date | Time (akdt) | Wind (mph) | Vis. (mi.) | Weather | Sky Cond. | Air | Dwpt | Max. | Min. | Relative Humidity | Wind Chill (°F) | Heat Index (°F) | altimeter (in) | sea level (mb) | 1 hr | 3 hr | 6 hr |
| 6 hour | |||||||||||||||||
| Temperature (ºF) | Pressure | Precipitation (in) | |||||||||||||||